Terminal Aerodrome Forecast
Issued by NWS Columbia, SC

Home | Current Version | Previous Version | Text Only | Print | Product List | Glossary On
Versions: 1 2 3 4 5 6 7 8 9 10 11 12 13 14 15 16 17 18 19 20 21 22 23 24 25 26 27 28 29 30 31 32 33 34 35 36 37 38 39 40 41 42 43 44 45 46 47 48 49
102
FTUS42 KCAE 010525
TAFAGS
TAF
KAGS 010525Z 0106/0206 16008KT P6SM OVC020
     FM011500 20018G25KT P6SM VCSH BKN025
     FM011900 21015G25KT P6SM VCTS SCT020CB BKN050
     FM020300 23008KT P6SM BKN080=

USA.gov is the U.S. government's official web portal to all federal, state and local government web resources and services.